(L18) QOS Observatory, Zalistci  (N48.848295 E26.718280)  Ukraine.
(N51) GROWTH India Telescope, IAO, Hanle  (N32.779244 E78.964610)  India.
(W33) Transit Dreams Observatory, Campobello  (N35.077819 W82.165490)
   US/South Carolina.
(W34) Squirrel Valley Observatory, Columbus  (N35.225393 W82.154700)
   US/North Carolina.  Observer R. L. Flynn. 0.35-m f/1.9 Schmidt-Cassegrain
   + CCD.

Orbital elements:  ZTF0Fax
   Perihelion 2020 Aug 31.896332 +/- 0.0177 TT = 21:30:43 (JD 2459093.396332)
Epoch 2020 Oct 18.0 TT = JDT 2459140.5   Earth MOID: 0.0132   Ve: 0.0300
M  13.47673609 +/- 0.044            Ma: 0.0381                AutoNEOCP
n   0.28610799 +/- 0.000832         Peri.  297.82024 +/- 0.006
a   2.28095150 +/- 0.00442          Node   359.49411 +/- 0.006
e   0.7320778 +/- 0.0006            Incl.    1.93994 +/- 0.0012
P   3.44                   H 24.2   G  0.15   U  8.0  
q 0.61111733 +/- 0.000182    Q 3.95078567 +/- 0.00899
From 96 observations 2020 Oct. 17-18 (40.8 hr); mean residual 0".55
Residuals in arcseconds: 
201017 I41  1.1-  2.3+    201017 K83  .06+  .13-    201017 L01  .03-  .01-    
201017 I41  1.6-  2.1+    201017 K19  .17-  .40-    201017 L01  .17-  .26+    
201017 I41  2.2+  .73-    201017 B49  .52-  .22+    201017 L01  .09-  .18+    
201017 I41  1.8+  .36-    201017 I93  .02-  .03+    201017 595  .15-  .31+    
201017 I52  .75-  .08-    201017 K83  .16+  .01-    201017 595  .05-  .15+    
201017 I52  .82-  .09-    201017 K19  .07+  .19-    201017 595  .12-  .04-    
201017 I52  .78-  .13-    201017 K38  .59-  .05-    201017 595  .07-  .04-    
201017 I52  .32+  .29+    201017 K83  .14+  .03+    201017 595  .11-  .24+    
201017 I41  1.4+  .88-    201017 I93  .01-  .02+    201018 W33  .40+  .03+    
201017 I41  1.0+  .73-    201017 K38  .66-  .21-    201018 W33  .29-  .24+    
201017 N51  .13+  .25-    201017 K38  .15-  .54-    201018 W33  .24+  .04-    
201017 N51  1.2+  1.5-    201017 204  .15-  .09-    201018 I52  .03+  .10+    
201017 N51  1.7+  1.1-    201017 204  .14-  .00     201018 I52  .03+  .08+    
201017 L18  1.2-  .79-    201017 204  .12-  .13+    201018 I52  .01-  .09+    
201017 L18  .54-  .48+    201017 204  .06-  .14+    201018 I52  .14-  .07+    
201017 L18  .44-  .49-    201017 204  .01-  .03+    201018 W34  .51+  .08-    
201017 L18  .53+  .32+    201017 160  .84-  .45+    201018 858  .33+  .26-    
201017 C95  .41+  .65-    201017 160  .79-  .67+    201018 W34  .32+  .13-    
201017 C95  .81-  .16+    201017 160  .03+  .17+    201018 858  .70+  .50-    
201017 587  .03+  .24+    201017 160  .19-  .31+    201018 W34  .38+  .24-    
201017 B49  .28-  .29+    201017 160  .17+  .19+    201018 858  .41+  .10+    
201017 587  .06+  .17+    201017 958  .35-  .03+    201018 858  .65+  .02+    
201017 587  .42-  .01+    201017 958  .07-  .02-    201018 718  .38+  .63+    
201017 C95  .53-  .33+    201017 958  .29-  .34-    201018 718  1.3+  .57-    
201017 587  .09+  .09-    201017 958  .09+  .30-    201018 718  .67+  .42+    
201017 B49  .50-  .30+    201017 104  .15-  .08-    201018 K38  .43-  .07+    
201017 B49  .62-  .46+    201017 104  .19-  .34+    201018 K38  .02-  .00     
201017 B49  .67-  .43-    201017 104  .05-  .03-    201018 K38  .10-  .05-    
201017 B49  .24-  .17+    201017 104  .08+  .09-    201018 203  .14+  .29+    
201017 K83  .29+  .23-    201017 L01  .00   .08-    201018 203  .36+  .20+    
201017 K19  1.5-  .42+    201017 L01  .13-  .07+    201018 B49  .24-  .27+    
201017 I93  .03-  .16-    201017 L01  .07-  .05+    201018 B49  .35-  .14-    

Ephemerides (geocentric):
Date (UTC) HH   RA              Dec         delta   r     elong  mag " sig PA
---- -- -- --  -------------   -----------  ------ ------ -----  --- ---- ---
2020 10 18 23  00 11 45.500   +25 53 59.67  .03987 1.0322 154.6 18.4 .035 126
2020 10 19 00  00 12 48.070   +25 44 36.27  .04036 1.0327 154.8 18.4 .030 125
2020 10 19 01  00 13 48.990   +25 35 24.70  .04085 1.0332 155.1 18.5 .025 124
2020 10 19 02  00 14 48.321   +25 26 24.64  .04134 1.0338 155.3 18.5 .020 123
2020 10 19 03  00 15 46.123   +25 17 35.76  .04183 1.0343 155.6 18.5 .015 121
2020 10 19 04  00 16 42.453   +25 08 57.77  .04233 1.0348 155.8 18.5 .010 117
2020 10 19 05  00 17 37.365   +25 00 30.36  .04282 1.0353 156.0 18.5 5.3m 106
2020 10 19 06  00 18 30.909   +24 52 13.25  .04331 1.0358 156.3 18.6 2.1m  34
2020 10 19 07  00 19 23.136   +24 44 06.16  .04381 1.0363 156.5 18.6 5.7m 151
2020 10 19 08  00 20 14.091   +24 36 08.81  .04431 1.0368 156.7 18.6 .011 141
2020 10 19 09  00 21 03.820   +24 28 20.95  .04480 1.0373 156.9 18.6 .016 137
2020 10 19 10  00 21 52.365   +24 20 42.32  .04530 1.0378 157.1 18.6 .021 135
2020 10 19 11  00 22 39.768   +24 13 12.66  .04580 1.0383 157.3 18.6 .026 134
2020 10 19 12  00 23 26.066   +24 05 51.75  .04630 1.0389 157.5 18.7 .031 133
2020 10 19 13  00 24 11.298   +23 58 39.34  .04680 1.0394 157.7 18.7 .036 133
2020 10 19 14  00 24 55.499   +23 51 35.21  .04730 1.0399 157.9 18.7 .041 132
2020 10 19 15  00 25 38.702   +23 44 39.15  .04780 1.0404 158.1 18.7 .046 132
2020 10 19 16  00 26 20.942   +23 37 50.94  .04830 1.0409 158.2 18.7 .051 132
2020 10 19 17  00 27 02.249   +23 31 10.38  .04880 1.0414 158.4 18.8 .056 131
2020 10 19 18  00 27 42.653   +23 24 37.26  .04930 1.0419 158.6 18.8 .061 131
2020 10 19 19  00 28 22.183   +23 18 11.40  .04981 1.0424 158.8 18.8 .066 131
2020 10 19 20  00 29 00.866   +23 11 52.61  .05031 1.0429 158.9 18.8 .071 131
2020 10 19 21  00 29 38.730   +23 05 40.71  .05082 1.0434 159.1 18.8 .076 131
2020 10 19 22  00 30 15.799   +22 59 35.52  .05132 1.0440 159.2 18.8 .081 131
2020 10 19 23  00 30 52.098   +22 53 36.87  .05183 1.0445 159.4 18.9 .086 131
2020 10 20 00  00 31 27.649   +22 47 44.61  .05233 1.0450 159.5 18.9 .091 131
2020 10 20 01  00 32 02.477   +22 41 58.56  .05284 1.0455 159.7 18.9 .096 130
2020 10 20 02  00 32 36.602   +22 36 18.57  .05335 1.0460 159.8 18.9 .100 130
2020 10 20 03  00 33 10.045   +22 30 44.50  .05385 1.0465 160.0 18.9 .105 130
2020 10 20 04  00 33 42.826   +22 25 16.19  .05436 1.0470 160.1 18.9 .110 130
2020 10 20 05  00 34 14.965   +22 19 53.51  .05487 1.0475 160.2 19.0 .115 130
2020 10 20 06  00 34 46.479   +22 14 36.33  .05538 1.0480 160.4 19.0 .119 130
2020 10 20 07  00 35 17.387   +22 09 24.50  .05589 1.0485 160.5 19.0 .124 130
2020 10 20 08  00 35 47.706   +22 04 17.90  .05640 1.0491 160.6 19.0 .128 130
2020 10 20 09  00 36 17.453   +21 59 16.40  .05691 1.0496 160.7 19.0 .133 130
2020 10 20 10  00 36 46.643   +21 54 19.88  .05742 1.0501 160.8 19.0 .138 130
2020 10 20 11  00 37 15.291   +21 49 28.23  .05793 1.0506 161.0 19.1 .142 130
2020 10 20 12  00 37 43.413   +21 44 41.34  .05844 1.0511 161.1 19.1 .147 130
2020 10 20 13  00 38 11.023   +21 39 59.08  .05895 1.0516 161.2 19.1 .151 130
2020 10 20 14  00 38 38.134   +21 35 21.35  .05946 1.0521 161.3 19.1 .155 130
2020 10 20 15  00 39 04.761   +21 30 48.05  .05997 1.0526 161.4 19.1 .160 130
2020 10 20 16  00 39 30.915   +21 26 19.08  .06049 1.0531 161.5 19.1 .164 130
2020 10 20 17  00 39 56.609   +21 21 54.34  .06100 1.0536 161.6 19.2 .168 130
2020 10 20 18  00 40 21.855   +21 17 33.73  .06151 1.0542 161.7 19.2 .173 130
2020 10 20 19  00 40 46.665   +21 13 17.16  .06202 1.0547 161.8 19.2 .177 130
2020 10 20 20  00 41 11.049   +21 09 04.54  .06254 1.0552 161.9 19.2 .181 130
2020 10 20 21  00 41 35.020   +21 04 55.77  .06305 1.0557 162.0 19.2 .185 130
2020 10 20 22  00 41 58.586   +21 00 50.79  .06357 1.0562 162.1 19.2 .189 130